Location: Innsbruck
(47.2657°N, 11.3914°E)
Time: 02:09:00
(UTC+01:00)

FALCONSAT 3 - Pass Details

Date: 05 December 2021
Orbit: 431 x 434 km, 35.4° (Epoch: 23 January)

Event Time Altitude Azimuth Distance (km) Brightness Sun altitude
Exits shadow 05:36:05 - 191° (S) 1,601 ? -21.0°
Reaches altitude 10° 05:36:52 10° 178° (S) 1,521 ? -20.9°
Maximum altitude 05:37:22 10° 170° (S) 1,507 ? -20.8°
Drops below altitude 10° 05:37:52 10° 161° (SSE) 1,522 ? -20.7°
Sets 05:41:49 0° 117° (ESE) 2,394 ? -20.1°
